Location: Newark
(43.0000°N, 1.6781°W)
Time: 12:20:10
(UTC+00:00)

Courier 1B - All Passes

Search period start: 27 September 2022 00:00
Search period end: 07 October 2022 00:00
Orbit: 962 x 1209 km, 28.3° (Epoch: 26 September)

Date Brightness Start Highest point End Pass type
(mag) Time Alt. Az. Time Alt. Az. Time Alt. Az.
27 Sep - 16:33:00 10° SSW 16:37:17 18° SSE 16:41:28 10° SE daylight
27 Sep - 18:25:23 10° SW 18:30:18 22° S 18:35:06 10° SE visible
27 Sep - 20:19:23 10° SW 20:23:14 16° SSW 20:27:05 10° SSE visible
28 Sep - 15:39:56 10° SSW 15:43:46 15° SSE 15:47:29 10° SE daylight
28 Sep - 17:31:46 10° SW 17:36:46 22° S 17:41:37 10° SE daylight
28 Sep - 19:25:22 10° SW 19:29:46 19° SSW 19:34:05 10° SSE visible
29 Sep - 14:47:11 10° S 14:50:14 13° SSE 14:53:12 10° SE daylight
29 Sep - 16:38:14 10° SW 16:43:14 21° S 16:48:04 10° SE daylight
29 Sep - 18:31:29 10° SW 18:36:16 21° S 18:40:56 10° SE visible
29 Sep - 20:26:59 10° SW 20:29:07 12° SSW 20:31:15 10° S visible
30 Sep - 13:55:21 10° SSE 13:56:41 11° SSE 13:58:00 10° SE daylight
30 Sep - 15:44:46 10° SW 15:49:41 20° S 15:54:25 10° SE daylight
30 Sep - 17:37:40 10° SW 17:42:45 22° S 17:47:39 10° SE daylight
30 Sep - 19:32:14 10° SW 19:35:40 15° SSW 19:39:03 10° SSE visible
01 Oct - 14:51:26 10° SSW 14:56:06 18° SSE 15:00:37 10° SE daylight
01 Oct - 16:43:54 10° SW 16:49:11 23° S 16:54:17 10° SE daylight
01 Oct - 18:37:57 10° SW 18:42:11 18° SSW 18:46:19 10° SSE visible
02 Oct - 13:58:17 10° SSW 14:02:31 16° SSE 14:06:38 10° SE daylight
02 Oct - 15:50:12 10° SW 15:55:37 23° S 16:00:49 10° SE daylight
02 Oct - 17:43:52 10° SW 17:48:41 20° SSW 17:53:20 10° SSE daylight
03 Oct - 13:05:27 10° S 13:08:56 14° SSE 13:12:19 10° SE daylight
03 Oct - 14:56:35 10° SW 15:02:01 23° S 15:07:14 10° SE daylight
03 Oct - 16:49:54 10° SW 16:55:08 22° S 17:00:10 10° SE daylight
03 Oct - 18:45:10 10° SW 18:48:03 13° SSW 18:50:51 10° S visible
04 Oct - 12:13:27 10° S 12:15:21 11° SSE 12:17:13 10° SE daylight
04 Oct - 14:03:04 10° SW 14:08:24 21° S 14:13:31 10° ESE daylight
04 Oct - 15:56:01 10° SW 16:01:34 24° S 16:06:52 10° SE daylight
04 Oct - 17:50:32 10° SW 17:54:34 16° SSW 17:58:28 10° SSE daylight
05 Oct - 13:09:42 10° SSW 13:14:46 19° SSE 13:19:40 10° ESE daylight
05 Oct - 15:02:12 10° SW 15:07:57 25° S 15:13:27 10° SE daylight
05 Oct - 16:56:15 10° WSW 17:01:02 19° SSW 17:05:39 10° SSE daylight
06 Oct - 12:16:34 10° SSW 12:21:08 17° SSE 12:25:35 10° SE daylight
06 Oct - 14:08:28 10° SW 14:14:19 25° S 14:19:55 10° SE daylight
06 Oct - 16:02:08 10° WSW 16:07:29 22° S 16:12:36 10° SE daylight
06 Oct - 17:58:24 10° SW 18:00:21 11° SSW 18:02:17 10° S daylight
